Location: Appletree Creek
(38.7363°N, 122.6833°W)
Time: 09:12:27
(UTC+00:00)

ADEOS - Pass Details

Date: 18 September 2020
Orbit: 792 x 795 km, 98.9° (Epoch: 20 October)

Event Time Altitude Azimuth Distance (km) Brightness Sun altitude
Rises 12:15:36 0° 18° (NNE) 3,299 7.3 -19.9°
Reaches altitude 10° 12:17:59 10° 23° (NNE) 2,365 6.6 -19.4°
Maximum altitude 12:23:06 54° 101° (E) 959 4.3 -18.5°
Drops below altitude 10° 12:28:10 10° 178° (S) 2,350 5.9 -17.6°
Sets 12:30:32 0° 183° (S) 3,275 6.6 -17.1°
